• In Russia
  • List of Countries
  • For 7 days
  • Water Temperature
  • Satellite Maps
  • Weather Map
  • Weather Widgets
  • user-avatar
    Login

    Hourly Weather Holoy

    Today, 19 January, Saturday

    Time Temperature Precipitation Wind Pressure Humidity
    00:00 -24°C° 0 mm 2 mps 607 mmHg 87%
    01:00 -25°C° 0 mm 2 mps 607 mmHg 86%
    02:00 -25°C° 0 mm 2 mps 607 mmHg 84%
    03:00 -25°C° 0 mm 2 mps 607 mmHg 82%
    04:00 -25°C° 0 mm 2 mps 607 mmHg 81%
    05:00 -24°C° 0 mm 2 mps 607 mmHg 78%
    06:00 -24°C° 0 mm 2 mps 607 mmHg 76%
    07:00 -23°C° 0 mm 2 mps 608 mmHg 70%
    08:00 -21°C° 0 mm 2 mps 608 mmHg 70%
    09:00 -19°C° 0 mm 2 mps 609 mmHg 71%
    10:00 -18°C° 0 mm 2 mps 609 mmHg 71%
    11:00 -16°C° 0 mm 2 mps 609 mmHg 70%
    12:00 -13°C° 0 mm 1 mps 610 mmHg 69%
    13:00 -11°C° 0 mm 1 mps 610 mmHg 68%
    14:00 -14°C° 0 mm 2 mps 609 mmHg 71%
    15:00 -15°C° 0 mm 2 mps 608 mmHg 75%
    16:00 -16°C° 0 mm 2 mps 608 mmHg 79%
    17:00 -18°C° 0 mm 3 mps 607 mmHg 75%
    18:00 -19°C° 0 mm 3 mps 607 mmHg 72%
    19:00 -21°C° 0 mm 3 mps 606 mmHg 68%
    20:00 -21°C° 0 mm 3 mps 606 mmHg 67%
    21:00 -19°C° 0 mm 3 mps 606 mmHg 65%
    22:00 -19°C° 0 mm 3 mps 606 mmHg 63%
    23:00 -19°C° 0 mm 3 mps 606 mmHg 63%

    Tomorrow, 20 January, Sunday

    Time Temperature Precipitation Wind Pressure Humidity
    00:00 -19°C° 0 mm 3 mps 606 mmHg 62%
    01:00 -18°C° 0 mm 3 mps 605 mmHg 61%
    02:00 -18°C° 0 mm 3 mps 605 mmHg 60%
    03:00 -18°C° 0 mm 3 mps 605 mmHg 60%
    04:00 -18°C° 0 mm 3 mps 605 mmHg 59%
    05:00 -17°C° 0 mm 2 mps 605 mmHg 58%
    06:00 -16°C° 0 mm 2 mps 605 mmHg 58%
    07:00 -16°C° 0 mm 2 mps 605 mmHg 57%
    08:00 -15°C° 0 mm 2 mps 606 mmHg 58%
    09:00 -14°C° 0 mm 2 mps 607 mmHg 60%
    10:00 -11°C° 0 mm 1 mps 607 mmHg 61%
    11:00 -9°C° 0 mm 1 mps 607 mmHg 63%
    12:00 -8°C° 0 mm 1 mps 608 mmHg 65%
    13:00 -7°C° 0 mm 1 mps 608 mmHg 66%
    14:00 -8°C° 0 mm 1 mps 607 mmHg 68%
    15:00 -9°C° 0 mm 1 mps 606 mmHg 69%
    16:00 -10°C° 0 mm 1 mps 606 mmHg 70%
    17:00 -13°C° 0 mm 2 mps 605 mmHg 68%
    18:00 -15°C° 0 mm 2 mps 605 mmHg 65%
    19:00 -16°C° 0 mm 2 mps 604 mmHg 63%
    20:00 -16°C° 0 mm 2 mps 604 mmHg 60%
    21:00 -16°C° 0 mm 2 mps 604 mmHg 57%
    22:00 -16°C° 0 mm 2 mps 603 mmHg 55%
    23:00 -17°C° 0 mm 3 mps 603 mmHg 54%

    Day after tomorrow, 21 January, Monday

    Time Temperature Precipitation Wind Pressure Humidity
    00:00 -17°C° 0 mm 3 mps 603 mmHg 54%
    01:00 -17°C° 0 mm 3 mps 603 mmHg 54%
    02:00 -16°C° 0 mm 3 mps 603 mmHg 54%
    03:00 -15°C° 0 mm 2 mps 603 mmHg 55%
    04:00 -15°C° 0 mm 2 mps 602 mmHg 56%
    05:00 -15°C° 0 mm 2 mps 603 mmHg 56%
    06:00 -14°C° 0 mm 2 mps 603 mmHg 56%
    07:00 -14°C° 0 mm 2 mps 603 mmHg 56%
    08:00 -11°C° 0 mm 1 mps 604 mmHg 58%
    09:00 -10°C° 0 mm 1 mps 604 mmHg 61%
    10:00 -9°C° 0 mm 1 mps 605 mmHg 63%
    11:00 -8°C° 0 mm 1 mps 605 mmHg 63%
    12:00 -7°C° 0 mm 0 mps 605 mmHg 63%
    13:00 -6°C° 0 mm 0 mps 605 mmHg 63%
    14:00 -7°C° 0 mm 0 mps 604 mmHg 68%
    15:00 -8°C° 0 mm 0 mps 604 mmHg 72%
    16:00 -10°C° 0 mm 1 mps 603 mmHg 77%
    17:00 -11°C° 0 mm 1 mps 603 mmHg 75%
    18:00 -11°C° 0 mm 1 mps 603 mmHg 74%
    19:00 -12°C° 0 mm 1 mps 603 mmHg 72%
    20:00 -12°C° 0 mm 1 mps 603 mmHg 70%
    21:00 -13°C° 0 mm 1 mps 602 mmHg 68%
    22:00 -13°C° 0 mm 1 mps 602 mmHg 67%
    23:00 -13°C° 0 mm 1 mps 602 mmHg 66%

    22 January, Tuesday

    Time Temperature Precipitation Wind Pressure Humidity
    00:00 -15°C° 0 mm 2 mps 602 mmHg 65%
    01:00 -15°C° 0 mm 2 mps 602 mmHg 64%
    02:00 -15°C° 0 mm 2 mps 602 mmHg 64%
    03:00 -15°C° 0 mm 2 mps 601 mmHg 63%
    04:00 -13°C° 0 mm 1 mps 601 mmHg 62%
    05:00 -15°C° 0 mm 2 mps 601 mmHg 61%
    06:00 -15°C° 0 mm 2 mps 601 mmHg 61%
    07:00 -15°C° 0 mm 2 mps 601 mmHg 60%
    08:00 -12°C° 0 mm 1 mps 602 mmHg 62%
    09:00 -11°C° 0 mm 1 mps 603 mmHg 65%
    10:00 -10°C° 0 mm 1 mps 603 mmHg 67%
    11:00 -9°C° 0 mm 1 mps 604 mmHg 69%
    12:00 -8°C° 0 mm 1 mps 604 mmHg 70%
    13:00 -7°C° 0 mm 1 mps 604 mmHg 72%
    14:00 -9°C° 0 mm 1 mps 604 mmHg 78%
    15:00 -11°C° 0 mm 1 mps 603 mmHg 84%
    16:00 -12°C° 0 mm 1 mps 603 mmHg 90%
    17:00 -13°C° 0 mm 1 mps 603 mmHg 87%
    18:00 -14°C° 0 mm 1 mps 603 mmHg 85%
    19:00 -15°C° 0 mm 1 mps 604 mmHg 83%
    20:00 -15°C° 0.1 mm 1 mps 604 mmHg 85%
    21:00 -14°C° 0.1 mm 1 mps 605 mmHg 87%
    22:00 -13°C° 0.1 mm 1 mps 606 mmHg 90%
    23:00 -13°C° 0.1 mm 1 mps 606 mmHg 91%

    23 January, Wednesday

    Time Temperature Precipitation Wind Pressure Humidity
    00:00 -13°C° 0.1 mm 1 mps 606 mmHg 93%
    01:00 -14°C° 0.1 mm 1 mps 606 mmHg 95%
    02:00 -14°C° 0.1 mm 1 mps 606 mmHg 96%
    03:00 -14°C° 0.1 mm 1 mps 606 mmHg 97%
    04:00 -15°C° 0.1 mm 0 mps 606 mmHg 97%
    05:00 -14°C° 0.2 mm 1 mps 607 mmHg 97%
    06:00 -14°C° 0.2 mm 1 mps 607 mmHg 97%
    07:00 -14°C° 0.2 mm 1 mps 608 mmHg 98%
    08:00 -14°C° 0.1 mm 1 mps 608 mmHg 97%
    09:00 -14°C° 0.1 mm 1 mps 608 mmHg 96%
    10:00 -14°C° 0.1 mm 1 mps 609 mmHg 95%
    11:00 -13°C° 0 mm 0 mps 609 mmHg 91%
    12:00 -12°C° 0 mm 0 mps 609 mmHg 86%
    13:00 -12°C° 0 mm 0 mps 609 mmHg 82%
    14:00 -13°C° 0 mm 0 mps 609 mmHg 86%
    15:00 -14°C° 0 mm 0 mps 608 mmHg 89%
    16:00 -15°C° 0 mm 0 mps 608 mmHg 92%
    17:00 -16°C° 0 mm 1 mps 608 mmHg 91%
    18:00 -17°C° 0 mm 1 mps 607 mmHg 91%
    19:00 -19°C° 0 mm 2 mps 607 mmHg 90%
    20:00 -20°C° 0 mm 2 mps 607 mmHg 89%
    21:00 -20°C° 0 mm 2 mps 608 mmHg 87%
    22:00 -20°C° 0 mm 2 mps 608 mmHg 86%
    23:00 -20°C° 0 mm 2 mps 608 mmHg 85%

    24 January, Thursday

    Time Temperature Precipitation Wind Pressure Humidity
    00:00 -20°C° 0 mm 2 mps 608 mmHg 85%
    01:00 -20°C° 0 mm 2 mps 608 mmHg 84%
    02:00 -20°C° 0 mm 2 mps 608 mmHg 83%
    03:00 -20°C° 0 mm 2 mps 607 mmHg 82%
    04:00 -20°C° 0 mm 2 mps 607 mmHg 81%
    05:00 -22°C° 0 mm 3 mps 608 mmHg 81%
    06:00 -22°C° 0 mm 3 mps 608 mmHg 80%
    07:00 -22°C° 0 mm 3 mps 608 mmHg 80%
    08:00 -19°C° 0 mm 3 mps 608 mmHg 79%
    09:00 -18°C° 0 mm 3 mps 609 mmHg 78%
    10:00 -16°C° 0 mm 3 mps 610 mmHg 76%
    11:00 -15°C° 0 mm 3 mps 610 mmHg 74%
    12:00 -14°C° 0 mm 3 mps 610 mmHg 72%
    13:00 -12°C° 0 mm 3 mps 610 mmHg 70%
    14:00 -13°C° 0 mm 3 mps 609 mmHg 72%
    15:00 -14°C° 0 mm 3 mps 609 mmHg 74%
    16:00 -15°C° 0 mm 3 mps 608 mmHg 75%
    17:00 -16°C° 0 mm 3 mps 608 mmHg 76%
    18:00 -17°C° 0 mm 3 mps 607 mmHg 76%
    19:00 -19°C° 0 mm 4 mps 607 mmHg 77%
    20:00 -19°C° 0 mm 3 mps 607 mmHg 77%
    21:00 -19°C° 0 mm 3 mps 606 mmHg 78%
    22:00 -21°C° 0 mm 3 mps 606 mmHg 79%
    23:00 -21°C° 0 mm 3 mps 606 mmHg 79%
    Show more